マクノート彗星

284P/McNaught (2021)

English version
Home page
Updated on March 27, 2022

---------------------------------------------------------------------

・ プロフィール

・ 写真集

・ 軌道要素

Epoch 2022 Jan. 21.0 TT = JDT 2459600.5
T 2021 Sept. 12.63025 TT                                Rudenko
q   2.2956699            (2000.0)            P               Q
n   0.13977992     Peri.  202.42352     +0.96836683     +0.21875391
a   3.6771063      Node   144.26280     -0.18615765     +0.95370334
e   0.3756857      Incl.   11.86134     -0.16616561     +0.20638959
P   7.05
From 2575 observations 2007 Apr. 17-2022 Jan. 31, mean residual 0".6.
     Nongravitational parameters A1 = +0.06, A2 = +0.0061.

・ 星図

・ 光度変化

        m1 = 7.5 + 5 logΔ + 20.0 log r

---------------------------------------------------------------------

軌道要素はM.P.E.C. 2022-C56に掲載されたものです。
星図はステラナビゲータ Ver.10 (アストロアーツ) で作成したものです。
光度グラフはComet for Windowsで作成したものです。

---------------------------------------------------------------------

Copyright(C) Seiichi Yoshida (comet@aerith.net). All rights reserved.